North Battleford Airport
CYQW : now visible

Airfield :











YOU CAN JOIN US ON...

 
LOGIN :

Register | Disclaimer

   EN    FR    IT 

 









Legend :    VFR   Marginal VFR   IFR   Intensive IFR   Very Intensive IFR
Visi :
Ceiling :
>= 8 km
>= 3000ft
5 to 8 km
1000 to 3000 ft
1500m to 5 km
500 to 1000 ft
800 to 1500m
200 to 500 ft
< 800m
< 200 ft
Symbols :   Thunderstorms  Fog  Heavy snow  Heavy precipitations  Wind > 20 kt






- Airport Elevation : 1799 ft
- IATA code : YQW


CYQW - North Battleford

CURRENT METAR :
  • 021900Z AUTO 00000KT 9SM CLR 30/09 A3007 RMK SLP180 DENSITY ALT 3800FT

EXPIRED METARs :
  • 021800Z AUTO 00000KT 9SM CLR 30/09 A3009 RMK SLP185 DENSITY ALT 3700FT
  • 021700Z AUTO 15005KT 140V200 9SM CLR 29/11 A3010 RMK SLP188 DENSITY ALT 3600FT

TAF TAF CYQW
Valid from the 02 at 18:00 until the 03 at 06:00 UTC


021738Z 0218/0306 15005KT P6SM FEW100 SCT220
FM030400 10006KT P6SM BKN100
TEMPO 0304/0306 P6SM -SHRA RMK FCST BASED ON AUTO OBS. NXT FCST BY 030000Z
CZWG FIR / North America



MET'MAP, your aeronautical weather chart ! - Copyright ORBIFLY December 2007 - Disclaimer

ORBIFLY MET'MAP TEAM :

Programming & Development : Alexandra Zaïnal
Concept & original design : Baudouin d'Aumeries
Assistance for programming : Marc-Olivier Méhu
Technical & hardware support : Manuel Goepfert

Contact : metmap@orbifly.com




SOURCES & CREDITS :

   NOAA       Earth
Advisory